Home > Weather > Frankfurt > Past weeks

Flag for Germany Weather for the Past 2 Weeks in Frankfurt, Hesse, Germany

Now
55 °F

Partly sunny.


Feels Like: 53 °F
Forecast: 37 / 59 °F
Wind: 9 mph from North

Location: Frankfurt-M-Flughafen Airport

Current Time: May 3, 2016 at 2:54:22 PM

Latest Report: May 3, 2016 at 1:50 PM


Visibility: N/A

Pressure: 30.15 "Hg

Humidity: 59%

Dew Point: 41 °F

Location of FrankfurtLocation

Historic Weather in Frankfurt — Graph

°F

Frankfurt Temperature Yesterday

Maximum temperature yesterday: 70 °F (at 6:20 PM)
Minimum temperature yesterday: 46 °F (at 5:50 AM)
Average temperature yesterday: 58 °F

High & Low Weather Summary for the Past Weeks

 TemperatureHumidityPressure
High70 °F (Apr 21, 4:50 PM)100% (Apr 19, 4:50 AM)30.45 "Hg (Apr 19, 4:50 AM)
Low30 °F (Apr 24, 4:50 AM)22% (Apr 20, 5:50 PM)29.56 "Hg (Apr 26, 12:20 AM)
Average48 °F62%30.02 "Hg
* Reported Apr 18 1:20 PM — May 3 1:20 PM, Frankfurt, Weather by CustomWeather, © 2016

Note: Actual official high and low records may vary slightly from our data, if they occured in-between our weather recording intervals... More about our weather records

Advertising

Frankfurt Weather History for the Previous 24 Hours

Scroll right to see more
 ConditionsComfort  
Time TempWeatherWind HumidityBarometerVisibility
1:20 PM
Tue, May 3
54 °FPartly sunny.12 mph67%30.15 "HgN/A
12:50 PM52 °FPartly sunny.12 mph72%30.15 "HgN/A
12:20 PM52 °FLight rain. Broken clouds.8 mph77%30.15 "HgN/A
11:50 AM52 °FLight rain. Partly sunny.13 mph82%30.15 "HgN/A
11:20 AM52 °FLight rain. Broken clouds.7 mph82%30.12 "HgN/A
10:50 AM52 °FLight rain. Broken clouds.10 mph82%30.12 "HgN/A
10:20 AM54 °FLight rain. Partly sunny.16 mph67%30.12 "HgN/A
9:50 AM57 °FPartly sunny.12 mph59%30.09 "HgN/A
9:20 AM57 °FPartly sunny.7 mph55%30.09 "HgN/A
8:50 AM55 °FPassing clouds.6 mph63%30.09 "HgN/A
8:20 AM54 °FSunny.7 mph67%30.09 "Hg10 mi
7:20 AM48 °FSunny.6 mph76%30.07 "Hg10 mi
6:50 AM45 °FClear.3 mph87%30.07 "Hg10 mi
6:20 AM45 °FClear.5 mph87%30.07 "Hg10 mi
5:50 AM45 °FClear.5 mph87%30.07 "Hg10 mi
5:20 AM45 °FClear.6 mph87%30.07 "Hg10 mi
4:20 AM48 °FClear.3 mph76%30.07 "Hg10 mi
3:20 AM43 °FClear.5 mph87%30.07 "Hg10 mi
2:50 AM45 °FClear.3 mph81%30.07 "Hg10 mi
2:20 AM45 °FClear.1 mph81%30.07 "Hg10 mi
1:50 AM45 °FClear.2 mph81%30.07 "Hg10 mi
1:20 AM46 °FClear.2 mph76%30.07 "Hg10 mi
12:50 AM46 °FPassing clouds.3 mph76%30.07 "HgN/A
12:20 AM48 °FClear.2 mph71%30.09 "Hg10 mi
11:50 PM
Mon, May 2
48 °FClear.2 mph71%30.09 "Hg10 mi
11:20 PM50 °FClear.2 mph67%30.09 "Hg10 mi
10:50 PM52 °FPassing clouds.5 mph62%30.09 "HgN/A
10:20 PM52 °FClear.2 mph62%30.09 "Hg10 mi
9:50 PM54 °FPassing clouds.3 mph54%30.09 "HgN/A
9:20 PM55 °FSunny.1 mph51%30.09 "Hg10 mi
8:50 PM59 °FSunny.2 mph42%30.09 "Hg10 mi
8:20 PM63 °FSunny.3 mph37%30.09 "Hg10 mi
7:50 PM68 °FSunny.3 mph28%30.09 "Hg10 mi
7:20 PM68 °FPassing clouds.5 mph30%30.09 "HgN/A
6:50 PM68 °FPassing clouds.6 mph28%30.09 "HgN/A
6:20 PM70 °FPassing clouds.5 mph27%30.09 "HgN/A
5:50 PM68 °FPassing clouds.8 mph28%30.09 "HgN/A
5:20 PM68 °FSunny.7 mph28%30.12 "Hg10 mi
4:50 PM68 °FPassing clouds.8 mph30%30.12 "HgN/A
4:20 PM68 °FPassing clouds.9 mph28%30.12 "HgN/A
3:50 PM68 °FPassing clouds.8 mph30%30.15 "HgN/A
3:20 PM68 °FPassing clouds.9 mph33%30.15 "HgN/A
2:50 PM66 °FPassing clouds.9 mph32%30.15 "HgN/A
2:20 PM66 °FPassing clouds.9 mph32%30.18 "HgN/A
Weather by CustomWeather, © 2016

See weather overviewHow to use our weather pages